Погода в Факатане

Новая Зеландия     37˚57′06″S   176˚59′43″E
темп.,
°C
ветер,
м/с
пор.,
м/с
влажн.,
%
обл.,
%
осадки,
мм/ч
давл.,
гПа
погр.,
м
17 января, вс
вс1701:00+16˚ююв129221 0.0 100966
04:00+15˚ююв129636 0.0 100862
07:00+16˚юз119357 0.0 100886
10:00+20˚зсз2364100 0.0 1008779
13:00+22˚ссз5561100 0.0 1005746
16:00+22˚ссз5764100 0.0 1004795
19:00+20˚ссз278999 0.6 1004376
22:00+18˚зсз299446 0.9 1005375
18 января, пн
пн1801:00+16˚з379128 0.9 1004298
04:00+14˚зсз38920 0.0 1004360
07:00+15˚з410922 0.0 1005481
10:00+19˚з495312 0.0 10071606
13:00+23˚зсз58417 0.0 10062116
16:00+24˚зсз58380 0.0 10061908
19:00+22˚зсз57465 0.0 10061869
22:00+17˚з495932 0.0 1009657
19 января, вт
вт1901:00+13˚зюз248016 0.0 1009225
04:00+11˚юз22910 0.0 1009137
07:00+12˚юз12897 0.0 1008130
10:00+20˚сз366424 0.1 10091202
13:00+21˚ссз686043 0.2 10061131
16:00+21˚ссз7107240 0.3 10041071
19:00+20˚сз498428 1.2 1004816
22:00+19˚зсз3117735 0.1 1004845
20 января, ср
ср2001:00+19˚зсз6148168 0.4 10021316
04:00+18˚зсз41179100 0.4 10021158
07:00+16˚зсз41374100 0.4 10031452
10:00+19˚з51051100 0.1 10041909
13:00+19˚зсз594693 0.1 10032092
16:00+20˚зсз61042100 0.0 10022357
19:00+19˚зсз584061 0.0 10032457
22:00+14˚з59550 0.0 1005710
21 января, чт
чт2101:00+10˚зюз24770 0.0 1006252
04:00+8˚ююз23880 0.0 1005134
07:00+8˚ююз228712 0.0 100698
10:00+16˚з14515 0.0 10081060
13:00+18˚с344733 0.0 10071386
16:00+20˚вюв043884 0.0 10071905
19:00+18˚з134988 0.0 1008466
22:00+14˚юз386143 0.0 1011314